Tracking 30923 objects as of 1-Jul-2025
HD Live streaming from Space Station
objects crossing your sky now

ORBITER SN3

Track ORBITER SN3 now!
10-day predictions


NORAD ID: 56960
Int'l Code: 2023-084AE
Perigee: 482.6 km
Apogee: 497.1 km
Inclination: 97.6 °
Period: 94.3 minutes
Semi major axis: 6860 km
RCS: Unknown
Launch date: June 12, 2023
Source: United States (US)
Launch site: AIR FORCE WESTERN TEST RANGE (AFWTR)
Your satellite tracking list
Your tracking list is empty




NASA's NSSDC Master Catalog

Two Line Element Set (TLE):
1 56960U 23084AE  25181.86188345  .00004985  00000-0  18678-3 0  9992
2 56960  97.5832 308.8885 0010569 131.0289 229.1865 15.27696258113736
Source of the keplerian elements: AFSPC